Weather History for Sierra Vista, AZ

Change the Weather History Date:

Wednesday, March 20, 2013

  Actual Average Record
Temperature  
Mean Temperature 64 °F -  
Max Temperature 77 °F 70 °F 84 °F (2004)
Min Temperature 50 °F 47 °F 28 °F (2012)
Degree Days  
Heating Degree Days 2    
Growing Degree Days 14 (Base 50)    
Moisture  
Dew Point 24 °F    
Average Humidity 25    
Maximum Humidity 40    
Minimum Humidity 10    
Precipitation  
Precipitation 0.00 in - - ()
Sea Level Pressure  
Sea Level Pressure 29.96 in    
Wind  
Wind Speed 8 mph (SW)    
Max Wind Speed 18 mph    
Max Gust Speed 25 mph    
Visibility 10 miles    
Events      
Averages and records for this station are not official NWS values.
T = Trace of Precipitation, MM = Missing Value Source: NWS Daily Summary

Daily Weather History Graph

Daily Weather History Graph

Search for Another Location

Airport:

Trip Planner

Search our weather history database for the weather conditions in past years. The results will help you decide how hot, cold, wet, or windy it might be!

Date:

Astronomy

Mar. 20, 2013 Rise Set
Actual Time 6:24 AM MST 6:33 PM MST
Civil Twilight 6:00 AM MST 6:57 PM MST
Nautical Twilight 5:32 AM MST 7:25 PM MST
Astronomical Twilight 5:03 AM MST 7:54 PM MST
Moon 12:30 PM MST (3/20) 1:47 AM MST (3/20)
Length of Visible Light 12h 56m
Length of Day
12h 08m
First Quarter, 60% of the Moon is Illuminated
Mar 20
First Quarter
Mar 27
Full
Apr 2
Last Quarter
Apr 10
New
Apr 18
First Quarter

Hourly Weather History & Observations

Time (MST) Temp. Dew Point Humidity Pressure Visibility Wind Dir Wind Speed Gust Speed Precip Events Conditions
12:55 AM 53.6 °F 26.6 °F 35% 30.03 in 10.0 mi South 5.8 mph - N/A   Mostly Cloudy
1:55 AM 51.8 °F 26.6 °F 38% 30.04 in 10.0 mi South 5.8 mph - N/A   Mostly Cloudy
2:55 AM 53.6 °F 26.6 °F 35% 30.02 in 10.0 mi South 6.9 mph - N/A   Mostly Cloudy
3:55 AM 51.8 °F 26.6 °F 38% 30.01 in 10.0 mi South 6.9 mph - N/A   Mostly Cloudy
4:55 AM 51.8 °F 26.6 °F 38% 30.01 in 10.0 mi South 5.8 mph - N/A   Mostly Cloudy
5:55 AM 51.8 °F 26.6 °F 38% 30.03 in 10.0 mi South 6.9 mph - N/A   Mostly Cloudy
6:55 AM 50.0 °F 26.6 °F 40% 30.05 in 10.0 mi Calm Calm - N/A   Overcast
7:55 AM 57.2 °F 26.6 °F 31% 30.06 in 10.0 mi NNE 3.5 mph - N/A   Overcast
8:55 AM 62.6 °F 26.6 °F 26% 30.04 in 10.0 mi East 6.9 mph - N/A   Overcast
9:55 AM 66.2 °F 21.2 °F 18% 30.02 in 10.0 mi SE 13.8 mph - N/A   Overcast
10:55 AM 71.6 °F 21.2 °F 15% 29.99 in 10.0 mi SE 11.5 mph - N/A   Overcast
11:55 AM 71.6 °F 21.2 °F 15% 29.96 in 10.0 mi Variable 3.5 mph - N/A   Overcast
12:55 PM 73.4 °F 21.2 °F 14% 29.93 in 10.0 mi Variable 3.5 mph - N/A   Overcast
1:55 PM 77.0 °F 15.8 °F 10% 29.90 in 10.0 mi West 13.8 mph 19.6 mph N/A   Overcast
2:55 PM 77.0 °F 17.6 °F 11% 29.89 in 10.0 mi WNW 18.4 mph 25.3 mph N/A   Overcast
3:55 PM 75.2 °F 23.0 °F 14% 29.89 in 10.0 mi WNW 18.4 mph 23.0 mph N/A   Overcast
4:55 PM 77.0 °F 23.0 °F 13% 29.89 in 10.0 mi NW 18.4 mph 24.2 mph N/A   Mostly Cloudy
5:55 PM 71.6 °F 23.0 °F 16% 29.89 in 10.0 mi NW 11.5 mph - N/A   Mostly Cloudy
6:55 PM 66.2 °F 24.8 °F 21% 29.91 in 10.0 mi WSW 10.4 mph - N/A   Mostly Cloudy
7:55 PM 62.6 °F 24.8 °F 24% 29.92 in 10.0 mi West 10.4 mph - N/A   Mostly Cloudy
8:55 PM 64.4 °F 24.8 °F 22% 29.89 in 10.0 mi West 10.4 mph - N/A   Mostly Cloudy
9:55 PM 62.6 °F 24.8 °F 24% 29.89 in 10.0 mi WSW 9.2 mph - N/A   Mostly Cloudy
10:55 PM 57.2 °F 24.8 °F 29% 29.88 in 10.0 mi West 6.9 mph - N/A   Mostly Cloudy
11:55 PM 57.2 °F 24.8 °F 29% 29.86 in 10.0 mi WSW 5.8 mph - N/A   Mostly Cloudy